Volver al catálogo

OSCAR 31

ActivoRadioaficionadoPO
NORAD 19420·PAYLOAD·🇺🇸 United States

Lanzado Aug 25, 1988 desde Vandenberg Space Force Base

Loading…

Próximos Pases (próximas 24 horas)

TLE

ActualizadoSource: Space-Track

Época: Sep 14, 2026, 06:51 UTC

1 19420U 88074B   26257.28574696  .00000063  00000-0  92008-4 0  9994
2 19420  90.0504  21.7211 0094749 173.3113 214.0451 13.42621267863482

Sigue OSCAR 31 en tiempo real con AllMySat

Download on the App Store